When you browse on this site, cookies collect data to enhance your experience and personalize the content and advertising you see.
Visit our Privacy Policy to learn more. By continuing to use the site, you agree to this use of cookies and data.
  • en Belgique
  • Liste des pays
  • À 7 jours
  • Température de l'eau
  • Carte météo
  • Widgets météo
  • user-avatar
    Se connecter

    Météo par heure à Molouprei

    Ce jour, 6 Juin, Samedi

    Heure Température Précipitation Vent Pression Humidité
    00:00 +29°C° 0 mm 2 m/s 755 mmHg 85%
    01:00 +28°C° 0 mm 2 m/s 755 mmHg 85%
    02:00 +28°C° 0 mm 2 m/s 754 mmHg 86%
    03:00 +28°C° 0 mm 2 m/s 754 mmHg 86%
    04:00 +28°C° 0 mm 2 m/s 754 mmHg 87%
    05:00 +28°C° 0 mm 2 m/s 754 mmHg 86%
    06:00 +28°C° 0 mm 2 m/s 754 mmHg 84%
    07:00 +29°C° 0 mm 2 m/s 755 mmHg 83%
    08:00 +31°C° 0 mm 2 m/s 755 mmHg 75%
    09:00 +33°C° 0 mm 3 m/s 755 mmHg 68%
    10:00 +35°C° 0 mm 3 m/s 755 mmHg 61%
    11:00 +36°C° 0.1 mm 3 m/s 755 mmHg 59%
    12:00 +36°C° 0.1 mm 3 m/s 755 mmHg 57%
    13:00 +36°C° 0 mm 3 m/s 755 mmHg 58%
    14:00 +35°C° 2.7 mm 3 m/s 754 mmHg 62%
    15:00 +35°C° 2.7 mm 3 m/s 753 mmHg 66%
    16:00 +34°C° 2.7 mm 3 m/s 752 mmHg 70%
    17:00 +33°C° 0.7 mm 3 m/s 753 mmHg 74%
    18:00 +31°C° 0.7 mm 3 m/s 753 mmHg 77%
    19:00 +30°C° 0 mm 3 m/s 754 mmHg 78%
    20:00 +30°C° 0 mm 3 m/s 755 mmHg 79%
    21:00 +29°C° 0 mm 3 m/s 755 mmHg 81%
    22:00 +29°C° 0 mm 2 m/s 755 mmHg 83%
    23:00 +29°C° 0 mm 2 m/s 755 mmHg 83%

    Demain, 7 Juin, Dimanche

    Heure Température Précipitation Vent Pression Humidité
    00:00 +28°C° 0 mm 2 m/s 755 mmHg 84%
    01:00 +28°C° 0 mm 2 m/s 755 mmHg 85%
    02:00 +28°C° 0 mm 2 m/s 755 mmHg 85%
    03:00 +28°C° 0 mm 2 m/s 754 mmHg 86%
    04:00 +28°C° 0 mm 2 m/s 754 mmHg 87%
    05:00 +28°C° 0 mm 1 m/s 754 mmHg 86%
    06:00 +29°C° 0 mm 1 m/s 755 mmHg 84%
    07:00 +29°C° 0 mm 1 m/s 755 mmHg 83%
    08:00 +30°C° 2 mm 1 m/s 755 mmHg 79%
    09:00 +31°C° 2 mm 2 m/s 755 mmHg 75%
    10:00 +33°C° 2 mm 3 m/s 756 mmHg 71%
    11:00 +31°C° 2 mm 3 m/s 755 mmHg 74%
    12:00 +31°C° 2 mm 3 m/s 755 mmHg 77%
    13:00 +30°C° 2 mm 4 m/s 755 mmHg 80%
    14:00 +30°C° 0 mm 4 m/s 754 mmHg 79%
    15:00 +30°C° 0 mm 4 m/s 753 mmHg 77%
    16:00 +30°C° 0 mm 4 m/s 752 mmHg 76%
    17:00 +29°C° 0 mm 3 m/s 752 mmHg 77%
    18:00 +29°C° 0 mm 3 m/s 753 mmHg 79%
    19:00 +28°C° 0 mm 2 m/s 753 mmHg 80%
    20:00 +28°C° 0 mm 2 m/s 753 mmHg 80%
    21:00 +28°C° 0 mm 2 m/s 754 mmHg 80%
    22:00 +27°C° 0 mm 2 m/s 755 mmHg 80%
    23:00 +27°C° 0 mm 2 m/s 755 mmHg 82%

    Après-demain, 8 Juin, Lundi

    Heure Température Précipitation Vent Pression Humidité
    00:00 +27°C° 0 mm 2 m/s 755 mmHg 84%
    01:00 +27°C° 0 mm 2 m/s 754 mmHg 86%
    02:00 +26°C° 0 mm 2 m/s 754 mmHg 87%
    03:00 +26°C° 0 mm 1 m/s 754 mmHg 89%
    04:00 +26°C° 0 mm 1 m/s 753 mmHg 90%
    05:00 +27°C° 0 mm 2 m/s 754 mmHg 88%
    06:00 +28°C° 0 mm 2 m/s 754 mmHg 87%
    07:00 +28°C° 0 mm 2 m/s 755 mmHg 85%
    08:00 +30°C° 0.1 mm 3 m/s 755 mmHg 78%
    09:00 +33°C° 0.1 mm 3 m/s 755 mmHg 71%
    10:00 +34°C° 0.1 mm 4 m/s 755 mmHg 65%
    11:00 +35°C° 1.1 mm 3 m/s 755 mmHg 62%
    12:00 +35°C° 1.1 mm 3 m/s 754 mmHg 60%
    13:00 +36°C° 1.1 mm 3 m/s 754 mmHg 58%
    14:00 +36°C° 0 mm 3 m/s 753 mmHg 57%
    15:00 +36°C° 0 mm 3 m/s 753 mmHg 55%
    16:00 +37°C° 0 mm 3 m/s 752 mmHg 53%
    17:00 +35°C° 0 mm 3 m/s 752 mmHg 59%
    18:00 +33°C° 0 mm 3 m/s 753 mmHg 65%
    19:00 +30°C° 0 mm 4 m/s 753 mmHg 71%
    20:00 +30°C° 0 mm 3 m/s 754 mmHg 74%
    21:00 +29°C° 0 mm 3 m/s 754 mmHg 77%
    22:00 +28°C° 0 mm 3 m/s 755 mmHg 81%
    23:00 +28°C° 0 mm 2 m/s 755 mmHg 83%

    9 Juin, Mardi

    Heure Température Précipitation Vent Pression Humidité
    00:00 +28°C° 0 mm 2 m/s 755 mmHg 85%
    01:00 +28°C° 0 mm 2 m/s 755 mmHg 87%
    02:00 +28°C° 0 mm 1 m/s 754 mmHg 87%
    03:00 +27°C° 0 mm 1 m/s 754 mmHg 88%
    04:00 +27°C° 0 mm 1 m/s 754 mmHg 89%
    05:00 +28°C° 0 mm 1 m/s 754 mmHg 87%
    06:00 +28°C° 0 mm 1 m/s 754 mmHg 85%
    07:00 +29°C° 0 mm 1 m/s 755 mmHg 83%
    08:00 +31°C° 0 mm 2 m/s 755 mmHg 75%
    09:00 +32°C° 0 mm 2 m/s 755 mmHg 67%
    10:00 +35°C° 0 mm 3 m/s 755 mmHg 59%
    11:00 +36°C° 0 mm 3 m/s 755 mmHg 55%
    12:00 +37°C° 0 mm 3 m/s 754 mmHg 51%
    13:00 +38°C° 0 mm 3 m/s 754 mmHg 47%
    14:00 +37°C° 0.2 mm 3 m/s 753 mmHg 51%
    15:00 +37°C° 0.2 mm 3 m/s 753 mmHg 54%
    16:00 +36°C° 0.2 mm 3 m/s 752 mmHg 58%
    17:00 +35°C° 0.1 mm 3 m/s 753 mmHg 63%
    18:00 +33°C° 0.1 mm 3 m/s 753 mmHg 68%
    19:00 +31°C° 0.1 mm 3 m/s 753 mmHg 72%
    20:00 +30°C° 0.1 mm 3 m/s 754 mmHg 75%
    21:00 +30°C° 0.1 mm 2 m/s 755 mmHg 78%
    22:00 +29°C° 0.1 mm 2 m/s 755 mmHg 81%
    23:00 +29°C° 0 mm 2 m/s 755 mmHg 83%

    10 Juin, Mercredi

    Heure Température Précipitation Vent Pression Humidité
    00:00 +28°C° 0 mm 2 m/s 755 mmHg 84%
    01:00 +28°C° 0 mm 2 m/s 754 mmHg 86%
    02:00 +28°C° 0 mm 2 m/s 754 mmHg 86%
    03:00 +28°C° 0 mm 2 m/s 754 mmHg 87%
    04:00 +27°C° 0 mm 1 m/s 754 mmHg 88%
    05:00 +28°C° 0 mm 2 m/s 754 mmHg 86%
    06:00 +28°C° 0 mm 2 m/s 754 mmHg 85%
    07:00 +29°C° 0 mm 2 m/s 755 mmHg 83%
    08:00 +31°C° 0 mm 2 m/s 755 mmHg 75%
    09:00 +32°C° 0 mm 2 m/s 755 mmHg 66%
    10:00 +35°C° 0 mm 3 m/s 756 mmHg 58%
    11:00 +36°C° 0 mm 3 m/s 755 mmHg 54%
    12:00 +37°C° 0 mm 3 m/s 754 mmHg 50%
    13:00 +38°C° 0 mm 3 m/s 754 mmHg 46%
    14:00 +37°C° 0.1 mm 3 m/s 753 mmHg 50%
    15:00 +37°C° 0.1 mm 3 m/s 753 mmHg 54%
    16:00 +36°C° 0.1 mm 4 m/s 752 mmHg 59%
    17:00 +34°C° 0.3 mm 3 m/s 753 mmHg 64%
    18:00 +33°C° 0.3 mm 3 m/s 753 mmHg 69%
    19:00 +31°C° 0.3 mm 3 m/s 753 mmHg 74%
    20:00 +30°C° 0 mm 3 m/s 754 mmHg 76%
    21:00 +30°C° 0 mm 3 m/s 755 mmHg 78%
    22:00 +29°C° 0 mm 2 m/s 755 mmHg 80%
    23:00 +29°C° 0 mm 2 m/s 755 mmHg 81%

    11 Juin, Jeudi

    Heure Température Précipitation Vent Pression Humidité
    00:00 +29°C° 0 mm 2 m/s 755 mmHg 81%
    01:00 +28°C° 0 mm 2 m/s 754 mmHg 81%
    02:00 +28°C° 0 mm 2 m/s 754 mmHg 82%
    03:00 +28°C° 0 mm 2 m/s 754 mmHg 82%
    04:00 +28°C° 0 mm 2 m/s 753 mmHg 83%
    05:00 +28°C° 0 mm 2 m/s 754 mmHg 82%
    06:00 +28°C° 0 mm 2 m/s 754 mmHg 82%
    07:00 +29°C° 0 mm 2 m/s 754 mmHg 82%
    08:00 +30°C° 0 mm 2 m/s 754 mmHg 77%
    09:00 +31°C° 0 mm 2 m/s 755 mmHg 72%
    10:00 +32°C° 0 mm 2 m/s 755 mmHg 67%
    11:00 +34°C° 0 mm 2 m/s 754 mmHg 63%
    12:00 +35°C° 0 mm 3 m/s 754 mmHg 59%
    13:00 +36°C° 0 mm 3 m/s 753 mmHg 55%
    14:00 +36°C° 0.1 mm 3 m/s 753 mmHg 55%
    15:00 +36°C° 0.1 mm 3 m/s 752 mmHg 55%
    16:00 +36°C° 0.1 mm 3 m/s 752 mmHg 55%
    17:00 +35°C° 0.1 mm 3 m/s 752 mmHg 60%
    18:00 +33°C° 0.1 mm 3 m/s 752 mmHg 65%
    19:00 +31°C° 0.1 mm 3 m/s 753 mmHg 69%
    20:00 +30°C° 0 mm 3 m/s 753 mmHg 72%
    21:00 +30°C° 0 mm 3 m/s 754 mmHg 74%
    22:00 +29°C° 0 mm 3 m/s 754 mmHg 77%
    23:00 +29°C° 0 mm 3 m/s 754 mmHg 78%
    Voir plus